Date,TemperatureHighF,TemperatureAvgF,TemperatureLowF,DewpointHighF,DewpointAvgF,DewpointLowF,HumidityHigh,HumidityAvg,HumidityLow,PressureMaxIn,PressureMinIn,WindSpeedMaxMPH,WindSpeedAvgMPH,GustSpeedMaxMPH,PrecipitationSumIn
2013-1-1,44,38,34,32,30,26,82,71,61,29.98,29.86,5,2,0,0.00
2013-1-2,34,29,22,26,19,13,79,65,46,30.17,29.95,10,3,0,0.00
2013-1-3,36,27,15,22,18,12,93,70,51,30.18,30.06,6,1,0,0.00
2013-1-4,40,34,30,24,22,21,71,62,53,30.14,30.03,12,4,0,0.00
2013-1-5,42,34,25,27,23,20,81,64,49,30.31,30.07,12,2,0,0.00
2013-1-6,47,38,26,32,28,24,94,69,51,30.09,29.93,5,1,0,0.00
2013-1-7,42,36,24,32,27,22,94,70,55,30.35,30.07,8,2,0,0.00
2013-1-8,50,33,20,35,28,19,99,82,53,30.31,30.24,5,1,0,0.00
2013-1-9,46,35,24,39,31,24,99,87,57,30.27,30.10,5,1,0,0.00
2013-1-10,50,42,35,32,30,27,75,63,47,30.50,30.29,8,2,0,0.00
2013-1-11,46,41,36,41,35,29,99,81,64,30.35,29.95,8,3,0,0.12
2013-1-12,57,45,39,50,43,39,99,94,77,30.03,29.94,5,1,0,0.00
2013-1-13,60,50,42,53,49,41,99,95,80,29.94,29.79,9,2,0,0.00
2013-1-14,52,48,38,51,42,34,99,84,61,30.19,29.79,9,2,0,0.35
2013-1-15,40,37,33,37,35,32,99,92,78,30.21,30.01,5,2,0,0.75
2013-1-16,37,35,32,37,35,32,99,99,98,30.01,29.69,5,1,0,0.98
2013-1-17,42,38,33,37,31,27,99,76,58,29.99,29.84,10,2,0,0.00
2013-1-18,36,30,25,29,18,11,86,60,39,30.35,29.91,12,4,0,0.00
2013-1-19,57,38,23,31,25,19,91,62,30,30.20,29.77,8,3,0,0.00
2013-1-20,54,41,29,33,22,11,71,48,22,29.95,29.67,16,4,0,0.00
2013-1-21,40,31,23,22,17,10,73,57,41,29.96,29.66,10,3,0,0.00
2013-1-22,23,16,9,7,-1,-5,69,47,36,30.15,29.84,14,4,0,0.00
2013-1-23,24,17,8,11,2,-1,77,53,35,30.20,29.98,5,2,0,0.00
2013-1-24,26,19,12,15,8,-1,91,66,39,30.37,29.93,17,3,0,0.00
2013-1-25,22,17,12,17,9,1,92,72,49,30.36,29.90,7,2,0,0.00
2013-1-26,34,24,17,25,21,15,94,87,67,30.28,29.92,4,1,0,0.07
2013-1-27,35,26,16,23,18,14,88,72,53,30.44,30.28,5,1,0,0.01
2013-1-28,40,35,30,40,33,23,99,92,73,30.30,29.88,5,2,0,0.26
2013-1-29,69,56,40,57,50,40,99,82,65,29.96,29.79,7,2,0,0.00
2013-1-30,62,50,42,58,48,40,99,92,82,29.78,29.56,4,1,0,0.00
2013-1-31,53,37,27,53,24,11,99,60,48,29.76,29.03,16,6,0,0.26
2013-2-1,29,23,14,24,11,4,94,60,42,30.22,29.68,11,4,0,0.00
2013-2-2,27,20,10,22,12,4,89,72,53,30.23,29.85,7,2,0,0.00
2013-2-3,36,28,20,29,24,16,97,86,63,29.86,29.65,9,2,0,0.01
2013-2-4,37,30,22,29,18,12,93,63,47,29.93,29.72,7,3,0,0.00
2013-2-5,38,32,30,34,31,28,99,93,82,29.78,29.68,4,1,0,0.02
2013-2-6,40,33,24,32,27,20,99,81,61,30.22,29.77,6,2,0,0.00
2013-2-7,39,31,22,28,24,19,92,74,58,30.30,30.07,10,2,0,0.00
2013-2-8,39,35,32,36,30,23,93,81,66,30.06,29.64,11,3,0,0.02
2013-2-9,38,31,23,24,19,15,74,61,39,30.27,29.83,17,6,0,0.00
2013-2-10,44,32,15,23,18,13,95,60,34,30.34,30.05,10,3,0,0.00
2013-2-11,60,46,34,49,37,24,99,75,29,30.06,29.52,10,4,0,0.18
2013-2-12,54,46,33,31,28,24,75,50,33,29.86,29.72,11,4,0,0.00
2013-2-13,43,34,26,33,29,24,99,82,59,29.80,29.51,7,2,0,0.05
2013-2-14,49,37,26,33,30,26,99,77,51,29.87,29.64,7,1,0,0.14
2013-2-15,55,39,28,37,32,25,99,78,47,29.90,29.79,9,2,0,0.27
2013-2-16,37,32,27,34,25,17,99,77,55,29.87,29.74,8,3,0,0.00
2013-2-17,30,25,19,18,12,6,81,58,42,30.08,29.74,14,5,0,0.00
2013-2-18,42,29,12,19,11,6,79,49,32,30.24,29.97,8,3,0,0.00
2013-2-19,50,38,27,42,28,19,88,67,48,29.96,29.53,12,4,0,0.06
2013-2-20,35,29,23,22,14,10,60,54,45,30.05,29.72,14,5,0,0.00
2013-2-21,35,28,22,18,15,11,74,59,46,30.21,30.01,14,4,0,0.00
2013-2-22,31,29,24,28,23,17,90,81,65,30.24,30.06,8,3,0,0.00
2013-2-23,46,36,31,40,34,28,99,92,80,30.05,29.70,5,2,0,0.02
2013-2-24,48,38,24,38,29,18,99,74,46,30.01,29.68,14,3,0,0.00
2013-2-25,45,32,20,25,22,18,93,67,43,30.10,30.01,8,1,0,0.00
2013-2-26,40,35,26,39,32,22,99,89,69,30.08,29.50,12,4,0,1.10
2013-2-27,54,43,36,43,36,34,99,79,52,29.54,29.42,11,3,0,0.04
2013-2-28,44,40,32,35,30,26,83,68,55,29.61,29.50,9,3,0,0.00
2013-3-1,43,38,32,32,28,24,81,70,54,29.77,29.60,11,3,0,0.00
2013-3-2,36,31,28,26,23,21,78,71,60,29.77,29.70,9,4,0,0.00
2013-3-3,40,32,26,24,20,18,83,63,46,29.81,29.68,13,4,0,0.00
2013-3-4,40,32,26,20,18,14,73,57,40,29.91,29.81,19,4,0,0.00
2013-3-5,48,36,22,29,20,10,88,56,22,29.94,29.66,11,3,0,0.00
2013-3-6,40,36,32,35,32,30,99,88,72,29.89,29.53,17,5,0,0.60
2013-3-7,46,39,32,30,29,27,88,68,49,30.04,29.88,11,3,0,0.00
2013-3-8,48,40,32,31,28,25,78,63,51,30.16,30.01,16,5,0,0.00
2013-3-9,58,42,27,30,25,21,86,56,25,30.24,30.11,7,2,0,0.00
2013-3-10,64,46,26,34,27,22,90,52,26,30.17,30.02,9,3,0,0.00
2013-3-11,61,51,42,49,40,26,85,67,37,30.05,29.71,13,5,0,0.00
2013-3-12,57,50,40,53,43,30,99,77,60,29.84,29.61,17,4,0,1.24
2013-3-13,49,38,27,32,26,19,88,62,35,29.95,29.77,14,4,0,0.00
2013-3-14,43,36,30,21,18,16,64,50,37,30.01,29.91,13,5,0,0.00
2013-3-15,57,43,24,36,27,20,82,55,35,29.97,29.63,8,2,0,0.00
2013-3-16,51,41,35,39,35,32,92,78,60,29.79,29.51,9,3,0,0.00
2013-3-17,41,37,34,33,28,23,92,72,53,30.12,29.78,8,3,0,0.00
2013-3-18,36,33,30,33,28,22,99,83,58,30.16,29.75,8,3,0,0.01
2013-3-19,58,41,32,41,28,12,99,68,21,29.78,29.57,13,3,0,0.44
2013-3-20,52,40,30,29,18,14,78,42,24,29.84,29.61,11,4,0,0.00
2013-3-21,36,30,23,27,15,9,75,52,36,29.76,29.64,10,4,0,0.00
2013-3-22,43,34,22,21,18,12,71,54,40,29.87,29.74,11,3,0,0.00
2013-3-23,52,38,21,27,23,18,86,56,34,29.89,29.77,12,3,0,0.00
2013-3-24,43,34,25,32,26,21,98,74,48,29.86,29.50,6,2,0,0.00
2013-3-25,40,35,32,36,33,32,99,95,82,29.55,29.38,5,1,0,0.89
2013-3-26,49,39,29,36,31,28,99,74,48,29.87,29.56,10,3,0,0.12
2013-3-27,48,40,32,33,29,25,85,65,44,29.99,29.86,10,3,0,0.00
2013-3-28,47,40,30,34,31,26,87,69,57,30.09,29.94,14,3,0,0.00
2013-3-29,55,45,36,36,31,27,80,61,36,30.12,29.98,7,2,0,0.00
2013-3-30,59,43,28,33,26,21,93,56,24,30.10,29.96,6,2,0,0.00
2013-3-31,49,44,37,47,38,22,99,79,51,29.96,29.61,7,2,0,0.28
2013-4-1,60,45,34,46,35,18,99,71,44,29.86,29.61,12,3,0,0.02
2013-4-2,46,36,26,23,18,14,73,48,29,30.05,29.86,11,3,0,0.00
2013-4-3,49,36,23,21,18,13,75,49,27,30.28,30.04,15,3,0,0.00
2013-4-4,50,38,21,20,17,14,79,46,25,30.28,29.93,11,2,0,0.00
2013-4-5,64,49,32,36,29,19,91,51,26,29.94,29.70,12,4,0,0.00
2013-4-6,56,44,30,26,23,20,72,44,25,30.21,29.94,7,3,0,0.00
2013-4-7,72,56,40,45,36,24,64,48,37,30.10,29.79,11,5,0,0.00
2013-4-8,82,68,50,53,48,43,77,51,30,29.94,29.78,7,2,0,0.00
2013-4-9,86,72,56,59,54,49,77,54,37,29.95,29.76,6,2,0,0.00
2013-4-10,91,77,62,62,57,52,69,52,35,29.82,29.62,10,2,0,0.00
2013-4-11,86,72,55,63,58,53,94,66,43,29.76,29.56,9,3,0,0.00
2013-4-12,68,57,50,61,54,43,99,92,75,29.65,29.43,7,4,0,0.86
2013-4-13,69,56,44,42,38,31,82,53,30,29.82,29.66,10,3,0,0.00
2013-4-14,68,54,39,41,37,33,85,56,33,30.03,29.83,9,2,0,0.00
2013-4-15,66,60,54,53,48,40,73,66,52,30.14,29.97,10,4,0,0.00
2013-4-16,77,65,55,63,56,48,88,75,61,30.15,29.95,9,4,0,0.00
2013-4-17,70,64,56,65,59,55,99,86,71,30.09,29.98,10,2,0,0.30
2013-4-18,77,66,59,67,60,56,95,81,66,30.08,29.82,8,4,0,0.00
2013-4-19,75,65,52,67,59,42,99,81,67,29.82,29.43,11,4,0,1.06
2013-4-20,58,50,38,41,32,27,70,50,35,30.23,29.67,11,4,0,0.00
2013-4-21,54,43,32,31,27,24,81,56,34,30.48,30.23,8,2,0,0.00
2013-4-22,58,47,33,37,34,29,94,64,41,30.45,30.25,11,3,0,0.00
2013-4-23,60,47,35,46,40,33,95,77,59,30.28,29.97,7,2,0,0.00
2013-4-24,78,60,41,62,52,40,99,79,51,29.97,29.60,8,3,0,0.24
2013-4-25,65,52,40,44,36,32,82,56,33,30.18,29.93,11,2,0,0.00
2013-4-26,64,52,38,41,37,33,93,60,37,30.35,30.18,6,2,0,0.00
2013-4-27,72,56,37,48,41,35,99,60,36,30.29,30.12,10,2,0,0.00
2013-4-28,63,54,46,52,46,39,99,76,47,30.14,29.99,10,2,0,0.22
2013-4-29,62,56,52,60,55,50,99,96,85,29.99,29.89,7,3,0,0.29
2013-4-30,61,57,54,59,56,54,99,96,87,30.16,29.96,7,2,0,0.01
2013-5-1,72,60,50,55,44,35,99,60,28,30.28,30.16,8,2,0,0.00
2013-5-2,72,58,41,50,46,40,99,69,40,30.31,30.17,11,2,0,0.00
2013-5-3,70,57,43,51,46,42,99,71,43,30.26,30.14,11,3,0,0.00
2013-5-4,70,56,40,48,44,39,99,68,42,30.20,30.03,12,3,0,0.00
2013-5-5,66,53,41,47,43,39,99,71,45,30.12,29.99,11,3,0,0.00
2013-5-6,62,54,42,58,51,41,99,90,80,30.05,29.92,8,3,0,0.10
2013-5-7,63,60,58,62,60,58,99,98,92,29.94,29.80,8,3,0,1.09
2013-5-8,73,61,52,64,56,52,99,87,63,29.88,29.78,6,1,0,0.22
2013-5-9,77,61,50,65,57,50,99,89,57,29.87,29.78,7,1,0,0.28
2013-5-10,85,66,50,66,60,50,99,85,46,29.88,29.71,5,1,0,0.87
2013-5-11,76,65,57,69,62,54,99,91,69,29.72,29.58,7,1,0,0.56
2013-5-12,64,56,44,56,40,31,94,58,32,29.89,29.63,12,3,0,0.00
2013-5-13,59,49,38,36,31,25,85,55,28,30.05,29.89,16,2,0,0.00
2013-5-14,65,50,31,44,37,30,99,65,33,30.10,29.89,8,2,0,0.00
2013-5-15,88,67,48,70,55,41,87,66,48,29.89,29.53,11,2,0,0.00
2013-5-16,81,72,62,67,62,57,87,71,61,29.81,29.61,6,1,0,0.00
2013-5-17,84,71,54,66,60,52,99,71,48,29.98,29.81,7,2,0,0.00
2013-5-18,70,65,60,61,58,52,93,77,54,30.08,29.97,11,3,0,0.00
2013-5-19,74,65,58,68,63,58,99,93,82,30.07,29.93,6,2,0,0.00
2013-5-20,84,73,61,73,68,61,99,87,68,29.96,29.82,5,2,0,0.00
2013-5-21,89,76,62,76,70,62,99,83,64,29.85,29.70,8,1,0,0.00
2013-5-22,92,76,66,75,69,66,99,82,46,29.79,29.65,5,1,0,0.63
2013-5-23,82,69,64,73,67,63,99,94,69,29.75,29.58,5,1,0,0.63
2013-5-24,64,54,45,63,47,34,99,78,57,30.06,29.61,15,5,0,0.02
2013-5-25,66,54,40,41,37,34,83,56,37,30.08,29.96,14,4,0,0.00
2013-5-26,72,58,40,44,40,36,89,56,28,30.11,29.99,10,2,0,0.00
2013-5-27,70,58,42,54,48,41,99,72,44,30.16,30.04,4,1,0,0.00
2013-5-28,81,65,54,71,61,53,99,88,69,30.06,29.89,6,1,0,0.23
2013-5-29,90,76,58,72,67,58,99,77,49,29.97,29.91,6,1,0,0.00
2013-5-30,93,78,62,74,69,62,99,76,48,30.06,29.95,5,1,0,0.00
2013-5-31,92,79,63,72,67,62,99,70,38,30.01,29.86,6,1,0,0.00
2013-6-1,93,80,65,74,69,64,97,71,51,29.89,29.74,10,1,0,0.00
2013-6-2,85,75,68,75,69,64,99,82,67,29.75,29.68,8,1,0,0.44
2013-6-3,81,71,62,72,65,56,99,83,64,29.84,29.70,10,2,0,0.42
2013-6-4,76,64,49,56,51,46,90,64,40,30.00,29.85,8,2,0,0.00
2013-6-5,81,67,52,62,57,51,99,72,48,30.04,29.88,8,2,0,0.00
2013-6-6,70,65,63,65,59,51,99,84,64,29.91,29.72,7,3,0,1.50
2013-6-7,69,65,63,69,65,63,99,99,98,29.71,29.50,8,2,0,0.94
2013-6-8,82,69,61,66,63,60,99,82,55,29.96,29.60,6,2,0,0.00
2013-6-9,83,71,60,71,65,59,99,83,64,30.06,29.94,7,2,0,0.00
2013-6-10,83,71,67,77,70,65,99,97,82,29.96,29.63,6,2,0,1.46
2013-6-11,82,72,63,71,67,63,99,85,66,29.72,29.64,7,1,0,0.01
2013-6-12,89,77,63,74,69,63,99,78,54,29.73,29.63,6,1,0,0.00
2013-6-13,85,72,67,73,67,58,99,87,66,29.64,29.34,10,2,0,0.99
2013-6-14,80,70,61,60,57,55,87,66,42,29.85,29.48,12,4,0,0.00
2013-6-15,85,70,54,64,57,51,99,69,34,29.95,29.85,5,1,0,0.00
2013-6-16,82,72,62,71,64,58,94,79,65,29.89,29.73,4,1,0,0.00
2013-6-17,90,76,66,74,68,63,90,75,53,29.83,29.72,4,1,0,0.00
2013-6-18,79,72,66,74,70,65,99,91,83,29.76,29.65,3,1,0,0.20
2013-6-19,81,69,61,65,62,59,99,81,50,30.00,29.76,6,2,0,0.06
2013-6-20,83,70,58,70,63,58,99,80,58,30.11,30.00,10,2,0,0.00
2013-6-21,86,72,57,65,60,54,92,66,47,30.16,30.07,7,2,0,0.00
2013-6-22,89,76,60,70,66,57,99,74,50,30.11,29.97,6,1,0,0.00
2013-6-23,92,77,65,74,70,65,99,81,51,30.05,29.92,7,1,0,0.00
2013-6-24,92,77,67,76,70,65,99,81,51,30.00,29.88,8,1,0,0.02
2013-6-25,94,80,66,76,71,64,99,77,50,29.90,29.74,12,1,0,0.12
2013-6-26,91,75,64,77,70,64,99,84,54,29.81,29.68,4,1,0,0.00
2013-6-27,87,76,67,76,71,67,99,87,68,29.69,29.46,8,2,0,0.10
2013-6-28,90,77,67,74,68,64,97,77,55,29.48,29.31,6,1,0,0.00
2013-6-29,89,76,64,69,65,61,99,71,41,29.56,29.37,5,1,0,0.04
2013-6-30,89,75,66,76,70,66,99,87,61,29.70,29.54,6,1,0,0.01
2013-7-1,85,77,70,74,72,69,97,85,66,29.82,29.68,7,2,0,0.00
2013-7-2,88,78,72,76,73,70,97,84,66,30.00,29.82,6,2,0,0.00
2013-7-3,86,78,72,77,73,70,96,86,71,30.07,29.99,5,2,0,0.05
2013-7-4,92,81,70,78,74,70,99,80,60,30.10,30.01,6,2,0,0.02
2013-7-5,93,83,70,77,73,69,99,75,53,30.07,29.95,7,2,0,0.00
2013-7-6,94,82,70,75,72,69,99,75,50,30.05,29.90,6,1,0,0.00
2013-7-7,93,77,69,76,71,68,99,83,56,29.95,29.84,6,1,0,1.87
2013-7-8,88,75,66,75,69,66,99,83,50,29.98,29.89,5,1,0,0.01
2013-7-9,88,76,69,76,72,68,96,86,64,29.97,29.84,4,1,0,0.15
2013-7-10,87,78,72,78,73,69,92,84,65,29.86,29.71,3,0,0,0.03
2013-7-11,86,76,69,72,69,66,95,80,59,29.80,29.70,5,1,0,0.00
2013-7-12,78,70,65,70,67,64,99,89,75,29.93,29.78,6,2,0,0.77
2013-7-13,87,76,68,74,70,66,99,85,63,30.12,29.90,6,1,0,0.10
2013-7-14,94,81,70,77,73,70,99,80,51,30.20,30.12,7,1,0,0.00
2013-7-15,97,81,68,76,72,68,99,77,47,30.19,30.06,6,1,0,0.00
2013-7-16,98,83,73,78,73,70,99,75,43,30.14,30.04,7,1,0,0.00
2013-7-17,102,84,72,77,73,68,99,72,40,30.11,29.95,5,1,0,0.00
2013-7-18,98,85,73,79,76,72,99,76,49,29.99,29.86,5,1,0,0.00
2013-7-19,97,84,74,79,75,68,99,76,49,29.88,29.73,6,1,0,0.00
2013-7-20,94,80,71,76,71,68,95,75,47,29.76,29.65,5,1,0,0.00
2013-7-21,87,77,70,74,70,66,99,81,61,29.82,29.74,4,1,0,0.00
2013-7-22,90,76,69,76,72,68,99,89,60,29.81,29.62,4,1,0,1.08
2013-7-23,88,77,70,76,71,68,99,83,52,29.63,29.51,7,1,0,0.04
2013-7-24,82,73,63,70,64,58,99,74,45,29.79,29.55,7,2,0,0.00
2013-7-25,84,67,56,60,56,52,89,71,44,29.91,29.78,8,2,0,0.00
2013-7-26,87,70,55,62,59,54,99,71,40,29.97,29.86,7,1,0,0.00
2013-7-27,82,72,61,74,67,60,99,86,69,29.90,29.75,5,1,0,0.01
2013-7-28,87,74,62,72,68,62,99,84,55,29.85,29.72,7,1,0,0.92
2013-7-29,82,68,56,65,58,54,99,73,40,30.02,29.85,5,1,0,0.01
2013-7-30,86,70,56,63,59,56,99,72,39,30.10,29.98,6,1,0,0.00
2013-7-31,83,71,61,70,66,61,99,86,65,30.00,29.83,4,1,0,0.00
2013-8-1,86,74,67,72,69,66,99,87,60,29.84,29.65,4,1,0,0.60
2013-8-2,87,74,61,70,63,58,99,73,40,29.82,29.71,7,1,0,0.01
2013-8-3,73,68,63,70,66,61,99,92,83,29.82,29.76,3,0,0,0.32
2013-8-4,109,19,57,100,88,57,99,99,99,29.90,29.78,10,2,0,0.01
2013-8-5,158,0,158,100,100,100,99,99,99,29.97,29.85,4,1,0,0.00
2013-8-6,158,0,158,100,100,100,99,99,99,29.91,29.85,8,2,0,1.00
2013-8-7,158,0,158,100,100,100,99,99,99,29.91,29.82,7,2,0,1.08
2013-8-8,158,0,158,100,100,100,99,99,99,29.88,29.81,4,1,0,0.44
2013-8-9,158,0,158,100,100,100,99,99,99,29.82,29.72,4,1,0,0.64
2013-8-10,158,0,158,100,100,100,99,99,99,29.93,29.82,3,1,0,0.00
2013-8-11,158,0,158,100,100,100,99,99,99,29.97,29.84,5,1,0,0.00
2013-8-12,158,0,158,100,100,100,99,99,99,29.88,29.76,10,1,0,0.00
2013-8-13,158,0,158,100,100,100,99,99,99,29.75,29.58,8,1,0,0.36
2013-8-14,158,0,158,100,100,100,99,99,99,29.96,29.71,11,3,0,0.00
2013-8-15,158,0,158,100,100,100,99,99,99,30.06,29.95,4,1,0,0.00
2013-8-16,158,0,158,100,100,100,99,99,99,30.04,29.98,4,1,0,0.00
2013-8-17,158,0,158,100,100,100,99,99,99,30.13,30.04,8,1,0,0.00
2013-8-18,158,0,158,100,100,100,99,99,99,30.12,30.02,4,1,0,0.24
2013-8-19,158,0,158,100,100,100,99,99,99,30.03,29.90,4,1,0,0.03
2013-8-20,158,0,158,100,100,100,99,99,99,30.04,29.94,5,1,0,0.00
2013-8-21,158,0,158,100,100,100,99,99,99,30.05,29.91,5,1,0,0.00